DELTA 1 DEB, 21570

Orbit data source: Space-Track

DELTA 1 DEB, 21570 is space debris in SSO originally from a launch on Thu, 12 Jun 1975 UTC launched from the Air Force Western Test Range (AFWTR). Debris objects in space refer to the collection of defunct objects orbiting the Earth. Examples of debris include non-operational satellites, rocket bodies, and fragments generated from explosions, collisions, or faulty payload assembly.

Loading next visibility...
Identifier
21570, 1975-052HQ
Orbit
SSO
Country
Flag of USUS
Related business
Manufacturer
Unknown
Mission
Spacecraft
Bus & Motor
Unknown
Mass
Unknown
Launch date (UTC)
1975-06-12 (50 years ago)
Launch vehicle
Unknown
Launch site
Air Force Western Test Range (AFWTR)
Object type
Payload
Rocket body
Debris
Shape & HBR
Unknown shape, 0.1 m
Radar Cross Section
Small (<0.1 m²)

Expand to show TLE details & history
Last TLE update: 1 week ago

TLE from 1 week ago
0 DELTA 1 DEB
1 21570U 75052HQ  25297.16906534  .00000285  00000-0  17407-2 0  9999
2 21570  99.5261 172.4024 0677485 183.8089 334.9146 12.08682950319546
Epoch: 2025-10-24T04:03Z
TLE epoch observation values (Epoch: 2025-10-24T04:03:27.245Z)
Latitude
24.50056°
Longitude
-96.91544°
Altitude
1,160.006 km
Speed
7.492 km/s
True Right ascension
23h 47m 03s
True Declination
24° 22' 41"
Sunlit
Object was in full shadow at epoch
Visualization orbit readout
Latitude
Unknown
Longitude
Unknown
Altitude
Unknown
Speed
Unknown
Apparent Right ascension
Unknown
Apparent Declination
Unknown
Sunlit
N/A
Visualization observer readout
Local Sidereal Time
19:24:30
Azimuth
Unknown
Elevation
Unknown
Doppler factor
Unknown
Orbital elements
Apogee altitude
2,182.881 km
Perigee altitude
1,096.49 km
Semi-major axis
8,017.823 km
Eccentricity
0.06775
Inclination
99.5261°
RAAN
172.4024°
Arg. of periapsis
183.8089°
True anomaly
331.35306°
Mean anomaly
334.9146°
Eccentric anomaly
333.16214°
Mean motion
3.02314 °/min
Orbital period
119.08 mins
BSTAR
0.0017407
Loading maneuver chart data...
Computing Atmospheric mass density...
Loading historical data...
Loading historical data...
Loading historical data...
Loading historical data...
Loading historical data...
Loading historical data...
Loading historical data...

Documentation

Showing up to 5 results
|